Terug naar catalogus

CZ-2C R/B

ActiefPO
NORAD 43610·ROCKET BODY·🇨🇳 China

Gelanceerd Sep 7, 2018 vanaf Taiyuan Satellite Launch Center

Loading…

Volgende Passages (komende 24 uur)

TLE

VersSource: Space-Track

Epoch: Sep 14, 2026, 19:41 UTC

1 43610U 18068B   26257.82058912  .00000162  00000-0  45995-4 0  9999
2 43610  98.7093 107.1931 0087607  75.7404 285.3503 14.56657740425944

Volg CZ-2C R/B in realtime met AllMySat

Download on the App Store